Year,Month,Day,Hour,Minute,Value (Times are PST for temperature in C)
2016,08,13,00,00,16.70
2016,08,13,00,01,16.70
2016,08,13,00,02,16.70
2016,08,13,00,03,16.70
2016,08,13,00,04,16.70
2016,08,13,00,05,16.60
2016,08,13,00,06,16.60
2016,08,13,00,07,16.60
2016,08,13,00,08,16.60
2016,08,13,00,09,16.60
2016,08,13,00,10,16.60
2016,08,13,00,11,16.60
2016,08,13,00,12,16.60
2016,08,13,00,13,16.60
2016,08,13,00,14,16.60
2016,08,13,00,15,16.60
2016,08,13,00,16,16.60
2016,08,13,00,17,16.60
2016,08,13,00,18,16.50
2016,08,13,00,19,16.50
2016,08,13,00,20,16.50
2016,08,13,00,21,16.50
2016,08,13,00,22,16.50
2016,08,13,00,23,16.50
2016,08,13,00,24,16.50
2016,08,13,00,25,16.50
2016,08,13,00,26,16.50
2016,08,13,00,27,16.50
2016,08,13,00,28,16.40
2016,08,13,00,29,16.40
2016,08,13,00,30,16.40
2016,08,13,00,31,16.40
2016,08,13,00,32,16.40
2016,08,13,00,33,16.40
2016,08,13,00,34,16.40
2016,08,13,00,35,16.40
2016,08,13,00,36,16.40
2016,08,13,00,37,16.40
2016,08,13,00,38,16.30
2016,08,13,00,39,16.30
2016,08,13,00,40,16.30
2016,08,13,00,41,16.30
2016,08,13,00,42,16.30
2016,08,13,00,43,16.30
2016,08,13,00,44,16.30
2016,08,13,00,45,16.30
2016,08,13,00,46,16.30
2016,08,13,00,47,16.30
2016,08,13,00,48,16.30
2016,08,13,00,49,16.30
2016,08,13,00,50,16.30
2016,08,13,00,51,16.30
2016,08,13,00,52,16.30
2016,08,13,00,53,16.20
2016,08,13,00,54,16.20
2016,08,13,00,55,16.20
2016,08,13,00,56,16.20
2016,08,13,00,57,16.20
2016,08,13,00,58,16.20
2016,08,13,00,59,16.20
2016,08,13,01,00,16.20
2016,08,13,01,01,16.20
2016,08,13,01,02,16.20
2016,08,13,01,03,16.20
2016,08,13,01,04,16.20
2016,08,13,01,05,16.20
2016,08,13,01,06,16.20
2016,08,13,01,07,16.10
2016,08,13,01,08,16.10
2016,08,13,01,09,16.10
2016,08,13,01,10,16.10
2016,08,13,01,11,16.10
2016,08,13,01,12,16.10
2016,08,13,01,13,16.10
2016,08,13,01,14,16.10
2016,08,13,01,15,16.00
2016,08,13,01,16,16.00
2016,08,13,01,17,16.00
2016,08,13,01,18,16.00
2016,08,13,01,19,16.00
2016,08,13,01,20,15.90
2016,08,13,01,21,15.90
2016,08,13,01,22,15.90
2016,08,13,01,23,15.90
2016,08,13,01,24,15.90
2016,08,13,01,25,15.90
2016,08,13,01,26,15.90
2016,08,13,01,27,15.90
2016,08,13,01,28,15.90
2016,08,13,01,29,15.90
2016,08,13,01,30,15.90
2016,08,13,01,31,15.90
2016,08,13,01,32,15.90
2016,08,13,01,33,15.90
2016,08,13,01,34,15.80
2016,08,13,01,35,15.80
2016,08,13,01,36,15.80
2016,08,13,01,37,15.80
2016,08,13,01,38,15.80
2016,08,13,01,39,15.80
2016,08,13,01,40,15.80
2016,08,13,01,41,15.80
2016,08,13,01,42,15.80
2016,08,13,01,43,15.80
2016,08,13,01,44,15.80
2016,08,13,01,45,15.80
2016,08,13,01,46,15.80
2016,08,13,01,47,15.80
2016,08,13,01,48,15.80
2016,08,13,01,49,15.80
2016,08,13,01,50,15.80
2016,08,13,01,51,15.80
2016,08,13,01,52,15.80
2016,08,13,01,53,15.80
2016,08,13,01,54,15.80
2016,08,13,01,55,15.80
2016,08,13,01,56,15.80
2016,08,13,01,57,15.80
2016,08,13,01,58,15.80
2016,08,13,01,59,15.80
2016,08,13,02,00,15.80
2016,08,13,02,01,15.80
2016,08,13,02,02,15.80
2016,08,13,02,03,15.80
2016,08,13,02,04,15.80
2016,08,13,02,05,15.80
2016,08,13,02,06,15.80
2016,08,13,02,07,15.80
2016,08,13,02,08,15.80
2016,08,13,02,09,15.80
2016,08,13,02,10,15.80
2016,08,13,02,11,15.80
2016,08,13,02,12,15.80
2016,08,13,02,13,15.80
2016,08,13,02,14,15.80
2016,08,13,02,15,15.80
2016,08,13,02,16,15.70
2016,08,13,02,17,15.70
2016,08,13,02,18,15.70
2016,08,13,02,19,15.70
2016,08,13,02,20,15.70
2016,08,13,02,21,15.70
2016,08,13,02,22,15.70
2016,08,13,02,23,15.70
2016,08,13,02,24,15.70
2016,08,13,02,25,15.70
2016,08,13,02,26,15.70
2016,08,13,02,27,15.70
2016,08,13,02,28,15.70
2016,08,13,02,29,15.70
2016,08,13,02,30,15.70
2016,08,13,02,31,15.70
2016,08,13,02,32,15.70
2016,08,13,02,33,15.70
2016,08,13,02,34,15.70
2016,08,13,02,35,15.70
2016,08,13,02,36,15.70
2016,08,13,02,37,15.70
2016,08,13,02,38,15.70
2016,08,13,02,39,15.70
2016,08,13,02,40,15.70
2016,08,13,02,41,15.70
2016,08,13,02,42,15.70
2016,08,13,02,43,15.70
2016,08,13,02,44,15.60
2016,08,13,02,45,15.60
2016,08,13,02,46,15.60
2016,08,13,02,47,15.60
2016,08,13,02,48,15.60
2016,08,13,02,49,15.60
2016,08,13,02,50,15.60
2016,08,13,02,51,15.60
2016,08,13,02,52,15.60
2016,08,13,02,53,15.60
2016,08,13,02,54,15.60
2016,08,13,02,55,15.60
2016,08,13,02,56,15.60
2016,08,13,02,57,15.60
2016,08,13,02,58,15.60
2016,08,13,02,59,15.60
2016,08,13,03,00,15.50
2016,08,13,03,01,15.50
2016,08,13,03,02,15.50
2016,08,13,03,03,15.50
2016,08,13,03,04,15.50
2016,08,13,03,05,15.50
2016,08,13,03,06,15.50
2016,08,13,03,07,15.50
2016,08,13,03,08,15.50
2016,08,13,03,09,15.50
2016,08,13,03,10,15.40
2016,08,13,03,11,15.40
2016,08,13,03,12,15.40
2016,08,13,03,13,15.40
2016,08,13,03,14,15.40
2016,08,13,03,15,15.40
2016,08,13,03,16,15.40
2016,08,13,03,17,15.40
2016,08,13,03,18,15.40
2016,08,13,03,19,15.40
2016,08,13,03,20,15.40
2016,08,13,03,21,15.40
2016,08,13,03,22,15.40
2016,08,13,03,23,15.30
2016,08,13,03,24,15.30
2016,08,13,03,25,15.30
2016,08,13,03,26,15.30
2016,08,13,03,27,15.30
2016,08,13,03,28,15.30
2016,08,13,03,29,15.30
2016,08,13,03,30,15.30
2016,08,13,03,31,15.30
2016,08,13,03,32,15.30
2016,08,13,03,33,15.30
2016,08,13,03,34,15.30
2016,08,13,03,35,15.30
2016,08,13,03,36,15.30
2016,08,13,03,37,15.30
2016,08,13,03,38,15.30
2016,08,13,03,39,15.30
2016,08,13,03,40,15.30
2016,08,13,03,41,15.30
2016,08,13,03,42,15.30
2016,08,13,03,43,15.30
2016,08,13,03,44,15.30
2016,08,13,03,45,15.30
2016,08,13,03,46,15.30
2016,08,13,03,47,15.30
2016,08,13,03,48,15.30
2016,08,13,03,49,15.30
2016,08,13,03,50,15.30
2016,08,13,03,51,15.30
2016,08,13,03,52,15.30
2016,08,13,03,53,15.20
2016,08,13,03,54,15.20
2016,08,13,03,55,15.20
2016,08,13,03,56,15.20
2016,08,13,03,57,15.20
2016,08,13,03,58,15.20
2016,08,13,03,59,15.20
2016,08,13,04,00,15.20
2016,08,13,04,01,15.20
2016,08,13,04,02,15.20
2016,08,13,04,03,15.20
2016,08,13,04,04,15.20
2016,08,13,04,05,15.20
2016,08,13,04,06,15.20
2016,08,13,04,07,15.20
2016,08,13,04,08,15.20
2016,08,13,04,09,15.30
2016,08,13,04,10,15.30
2016,08,13,04,11,15.30
2016,08,13,04,12,15.30
2016,08,13,04,13,15.30
2016,08,13,04,14,15.30
2016,08,13,04,15,15.20
2016,08,13,04,16,15.20
2016,08,13,04,17,15.20
2016,08,13,04,18,15.20
2016,08,13,04,19,15.20
2016,08,13,04,20,15.20
2016,08,13,04,21,15.20
2016,08,13,04,22,15.20
2016,08,13,04,23,15.20
2016,08,13,04,24,15.20
2016,08,13,04,25,15.20
2016,08,13,04,26,15.20
2016,08,13,04,27,15.20
2016,08,13,04,28,15.20
2016,08,13,04,29,15.20
2016,08,13,04,30,15.20
2016,08,13,04,31,15.20
2016,08,13,04,32,15.20
2016,08,13,04,33,15.20
2016,08,13,04,34,15.20
2016,08,13,04,35,15.20
2016,08,13,04,36,15.20
2016,08,13,04,37,15.20
2016,08,13,04,38,15.20
2016,08,13,04,39,15.20
2016,08,13,04,40,15.20
2016,08,13,04,41,15.20
2016,08,13,04,42,15.20
2016,08,13,04,43,15.20
2016,08,13,04,44,15.20
2016,08,13,04,45,15.20
2016,08,13,04,46,15.20
2016,08,13,04,47,15.20
2016,08,13,04,48,15.20
2016,08,13,04,49,15.20
2016,08,13,04,50,15.20
2016,08,13,04,51,15.20
2016,08,13,04,52,15.20
2016,08,13,04,53,15.20
2016,08,13,04,54,15.20
2016,08,13,04,55,15.20
2016,08,13,04,56,15.20
2016,08,13,04,57,15.20
2016,08,13,04,58,15.20
2016,08,13,04,59,15.20
2016,08,13,05,00,15.20
2016,08,13,05,01,15.20
2016,08,13,05,02,15.20
2016,08,13,05,03,15.10
2016,08,13,05,04,15.10
2016,08,13,05,05,15.10
2016,08,13,05,06,15.10
2016,08,13,05,07,15.10
2016,08,13,05,08,15.10
2016,08,13,05,09,15.10
2016,08,13,05,10,15.10
2016,08,13,05,11,15.10
2016,08,13,05,12,15.10
2016,08,13,05,13,15.10
2016,08,13,05,14,15.10
2016,08,13,05,15,15.10
2016,08,13,05,16,15.10
2016,08,13,05,17,15.10
2016,08,13,05,18,15.10
2016,08,13,05,19,15.10
2016,08,13,05,20,15.10
2016,08,13,05,21,15.10
2016,08,13,05,22,15.00
2016,08,13,05,23,15.00
2016,08,13,05,24,15.00
2016,08,13,05,25,15.10
2016,08,13,05,26,15.10
2016,08,13,05,27,15.10
2016,08,13,05,28,15.10
2016,08,13,05,29,15.10
2016,08,13,05,30,15.20
2016,08,13,05,31,15.20
2016,08,13,05,32,15.20
2016,08,13,05,33,15.10
2016,08,13,05,34,15.10
2016,08,13,05,35,15.10
2016,08,13,05,36,15.10
2016,08,13,05,37,15.10
2016,08,13,05,38,15.10
2016,08,13,05,39,15.10
2016,08,13,05,40,15.00
2016,08,13,05,41,15.00
2016,08,13,05,42,15.00
2016,08,13,05,43,15.00
2016,08,13,05,44,14.90
2016,08,13,05,45,14.90
2016,08,13,05,46,14.90
2016,08,13,05,47,14.90
2016,08,13,05,48,14.90
2016,08,13,05,49,14.90
2016,08,13,05,50,14.90
2016,08,13,05,51,14.80
2016,08,13,05,52,14.80
2016,08,13,05,53,14.80
2016,08,13,05,54,14.80
2016,08,13,05,55,14.80
2016,08,13,05,56,14.80
2016,08,13,05,57,14.80
2016,08,13,05,58,14.80
2016,08,13,05,59,14.80
2016,08,13,06,00,14.80
2016,08,13,06,01,14.80
2016,08,13,06,02,14.80
2016,08,13,06,03,14.80
2016,08,13,06,04,14.80
2016,08,13,06,05,14.80
2016,08,13,06,06,14.80
2016,08,13,06,07,14.80
2016,08,13,06,08,14.80
2016,08,13,06,09,14.80
2016,08,13,06,10,14.80
2016,08,13,06,11,14.80
2016,08,13,06,12,14.80
2016,08,13,06,13,14.80
2016,08,13,06,14,14.80
2016,08,13,06,15,14.80
2016,08,13,06,16,14.70
2016,08,13,06,17,14.70
2016,08,13,06,18,14.70
2016,08,13,06,19,14.70
2016,08,13,06,20,14.70
2016,08,13,06,21,14.70
2016,08,13,06,22,14.70
2016,08,13,06,23,14.70
2016,08,13,06,24,14.70
2016,08,13,06,25,14.70
2016,08,13,06,26,14.70
2016,08,13,06,27,14.70
2016,08,13,06,28,14.70
2016,08,13,06,29,14.70
2016,08,13,06,30,14.70
2016,08,13,06,31,14.70
2016,08,13,06,32,14.70
2016,08,13,06,33,14.70
2016,08,13,06,34,14.70
2016,08,13,06,35,14.70
2016,08,13,06,36,14.60
2016,08,13,06,37,14.60
2016,08,13,06,38,14.60
2016,08,13,06,39,14.60
2016,08,13,06,40,14.60
2016,08,13,06,41,14.60
2016,08,13,06,42,14.60
2016,08,13,06,43,14.70
2016,08,13,06,44,14.70
2016,08,13,06,45,14.70
2016,08,13,06,46,14.70
2016,08,13,06,47,14.70
2016,08,13,06,48,14.70
2016,08,13,06,49,14.70
2016,08,13,06,50,14.70
2016,08,13,06,51,14.70
2016,08,13,06,52,14.70
2016,08,13,06,53,14.70
2016,08,13,06,54,14.70
2016,08,13,06,55,14.70
2016,08,13,06,56,14.70
2016,08,13,06,57,14.70
2016,08,13,06,58,14.70
2016,08,13,06,59,14.70
2016,08,13,07,00,14.70
2016,08,13,07,01,14.70
2016,08,13,07,02,14.70
2016,08,13,07,03,14.70
2016,08,13,07,04,14.80
2016,08,13,07,05,14.80
2016,08,13,07,06,14.80
2016,08,13,07,07,14.80
2016,08,13,07,08,14.80
2016,08,13,07,09,14.80
2016,08,13,07,10,14.80
2016,08,13,07,11,14.80
2016,08,13,07,12,14.80
2016,08,13,07,13,14.80
2016,08,13,07,14,14.80
2016,08,13,07,15,14.80
2016,08,13,07,16,14.80
2016,08,13,07,17,14.80
2016,08,13,07,18,14.90
2016,08,13,07,19,14.90
2016,08,13,07,20,14.90
2016,08,13,07,21,15.00
2016,08,13,07,22,15.00
2016,08,13,07,23,15.00
2016,08,13,07,24,15.10
2016,08,13,07,25,15.10
2016,08,13,07,26,15.10
2016,08,13,07,27,15.10
2016,08,13,07,28,15.10
2016,08,13,07,29,15.10
2016,08,13,07,30,15.10
2016,08,13,07,31,15.10
2016,08,13,07,32,15.10
2016,08,13,07,33,15.10
2016,08,13,07,34,15.20
2016,08,13,07,35,15.20
2016,08,13,07,36,15.20
2016,08,13,07,37,15.20
2016,08,13,07,38,15.20
2016,08,13,07,39,15.20
2016,08,13,07,40,15.30
2016,08,13,07,41,15.30
2016,08,13,07,42,15.30
2016,08,13,07,43,15.30
2016,08,13,07,44,15.40
2016,08,13,07,45,15.40
2016,08,13,07,46,15.40
2016,08,13,07,47,15.50
2016,08,13,07,48,15.50
2016,08,13,07,49,15.60
2016,08,13,07,50,15.60
2016,08,13,07,51,15.70
2016,08,13,07,52,15.70
2016,08,13,07,53,15.80
2016,08,13,07,54,15.80
2016,08,13,07,55,15.80
2016,08,13,07,56,15.80
2016,08,13,07,57,15.90
2016,08,13,07,58,15.90
2016,08,13,07,59,15.90
2016,08,13,08,00,15.90
2016,08,13,08,01,16.00
2016,08,13,08,02,16.00
2016,08,13,08,03,16.10
2016,08,13,08,04,16.10
2016,08,13,08,05,16.10
2016,08,13,08,06,16.10
2016,08,13,08,07,16.10
2016,08,13,08,08,16.20
2016,08,13,08,09,16.20
2016,08,13,08,10,16.20
2016,08,13,08,11,16.20
2016,08,13,08,12,16.20
2016,08,13,08,13,16.20
2016,08,13,08,14,16.20
2016,08,13,08,15,16.30
2016,08,13,08,16,16.30
2016,08,13,08,17,16.30
2016,08,13,08,18,16.30
2016,08,13,08,19,16.30
2016,08,13,08,20,16.40
2016,08,13,08,21,16.40
2016,08,13,08,22,16.40
2016,08,13,08,23,16.40
2016,08,13,08,24,16.40
2016,08,13,08,25,16.50
2016,08,13,08,26,16.50
2016,08,13,08,27,16.50
2016,08,13,08,28,16.60
2016,08,13,08,29,16.60
2016,08,13,08,30,16.60
2016,08,13,08,31,16.60
2016,08,13,08,32,16.60
2016,08,13,08,33,16.60
2016,08,13,08,34,16.60
2016,08,13,08,35,16.60
2016,08,13,08,36,16.60
2016,08,13,08,37,16.60
2016,08,13,08,38,16.60
2016,08,13,08,39,16.60
2016,08,13,08,40,16.70
2016,08,13,08,41,16.80
2016,08,13,08,42,16.80
2016,08,13,08,43,16.80
2016,08,13,08,44,16.80
2016,08,13,08,45,16.80
2016,08,13,08,46,16.80
2016,08,13,08,47,16.80
2016,08,13,08,48,16.90
2016,08,13,08,49,16.90
2016,08,13,08,50,16.90
2016,08,13,08,51,16.90
2016,08,13,08,52,17.00
2016,08,13,08,53,17.10
2016,08,13,08,54,17.10
2016,08,13,08,55,17.10
2016,08,13,08,56,17.10
2016,08,13,08,57,17.10
2016,08,13,08,58,17.10
2016,08,13,08,59,17.10
2016,08,13,09,00,17.10
2016,08,13,09,01,17.20
2016,08,13,09,02,17.20
2016,08,13,09,03,17.20
2016,08,13,09,04,17.20
2016,08,13,09,05,17.20
2016,08,13,09,06,17.20
2016,08,13,09,07,17.20
2016,08,13,09,08,17.20
2016,08,13,09,09,17.20
2016,08,13,09,10,17.30
2016,08,13,09,11,17.30
2016,08,13,09,12,17.30
2016,08,13,09,13,17.30
2016,08,13,09,14,17.40
2016,08,13,09,15,17.40
2016,08,13,09,16,17.40
2016,08,13,09,17,17.50
2016,08,13,09,18,17.50
2016,08,13,09,19,17.40
2016,08,13,09,20,17.40
2016,08,13,09,21,17.40
2016,08,13,09,22,17.40
2016,08,13,09,23,17.40
2016,08,13,09,24,17.40
2016,08,13,09,25,17.40
2016,08,13,09,26,17.40
2016,08,13,09,27,17.40
2016,08,13,09,28,17.40
2016,08,13,09,29,17.40
2016,08,13,09,30,17.40
2016,08,13,09,31,17.40
2016,08,13,09,32,17.40
2016,08,13,09,33,17.40
2016,08,13,09,34,17.40
2016,08,13,09,35,17.40
2016,08,13,09,36,17.40
2016,08,13,09,37,17.40
2016,08,13,09,38,17.40
2016,08,13,09,39,17.40
2016,08,13,09,40,17.40
2016,08,13,09,41,17.40
2016,08,13,09,42,17.50
2016,08,13,09,43,17.50
2016,08,13,09,44,17.50
2016,08,13,09,45,17.50
2016,08,13,09,46,17.60
2016,08,13,09,47,17.50
2016,08,13,09,48,17.50
2016,08,13,09,49,17.60
2016,08,13,09,50,17.60
2016,08,13,09,51,17.60
2016,08,13,09,52,17.60
2016,08,13,09,53,17.60
2016,08,13,09,54,17.60
2016,08,13,09,55,17.70
2016,08,13,09,56,17.70
2016,08,13,09,57,17.70
2016,08,13,09,58,17.70
2016,08,13,09,59,17.70
2016,08,13,10,00,17.70
2016,08,13,10,01,17.70
2016,08,13,10,02,17.70
2016,08,13,10,03,17.80
2016,08,13,10,04,17.80
2016,08,13,10,05,17.80
2016,08,13,10,06,17.90
2016,08,13,10,07,17.90
2016,08,13,10,08,18.00
2016,08,13,10,09,18.10
2016,08,13,10,10,18.10
2016,08,13,10,11,18.20
2016,08,13,10,12,18.20
2016,08,13,10,13,18.20
2016,08,13,10,14,18.20
2016,08,13,10,15,18.20
2016,08,13,10,16,18.20
2016,08,13,10,17,18.10
2016,08,13,10,18,18.10
2016,08,13,10,19,18.10
2016,08,13,10,20,18.10
2016,08,13,10,21,18.00
2016,08,13,10,22,18.00
2016,08,13,10,23,18.00
2016,08,13,10,24,18.00
2016,08,13,10,25,17.90
2016,08,13,10,26,17.90
2016,08,13,10,27,17.90
2016,08,13,10,28,17.90
2016,08,13,10,29,17.90
2016,08,13,10,30,17.90
2016,08,13,10,31,18.00
2016,08,13,10,32,18.00
2016,08,13,10,33,18.10
2016,08,13,10,34,18.10
2016,08,13,10,35,18.10
2016,08,13,10,36,18.10
2016,08,13,10,37,18.20
2016,08,13,10,38,18.20
2016,08,13,10,39,18.20
2016,08,13,10,40,18.20
2016,08,13,10,41,18.10
2016,08,13,10,42,18.10
2016,08,13,10,43,18.00
2016,08,13,10,44,18.00
2016,08,13,10,45,17.90
2016,08,13,10,46,17.90
2016,08,13,10,47,17.90
2016,08,13,10,48,17.80
2016,08,13,10,49,17.80
2016,08,13,10,50,17.70
2016,08,13,10,51,17.70
2016,08,13,10,52,17.70
2016,08,13,10,53,17.70
2016,08,13,10,54,17.70
2016,08,13,10,55,17.70
2016,08,13,10,56,17.70
2016,08,13,10,57,17.70
2016,08,13,10,58,17.70
2016,08,13,10,59,17.70
2016,08,13,11,00,17.70
2016,08,13,11,01,17.70
2016,08,13,11,02,17.80
2016,08,13,11,03,17.80
2016,08,13,11,04,17.80
2016,08,13,11,05,17.80
2016,08,13,11,06,17.90
2016,08,13,11,07,17.90
2016,08,13,11,08,18.00
2016,08,13,11,09,18.10
2016,08,13,11,10,18.20
2016,08,13,11,11,18.20
2016,08,13,11,12,18.30
2016,08,13,11,13,18.30
2016,08,13,11,14,18.30
2016,08,13,11,15,18.30
2016,08,13,11,16,18.20
2016,08,13,11,17,18.30
2016,08,13,11,18,18.30
2016,08,13,11,19,18.40
2016,08,13,11,20,18.40
2016,08,13,11,21,18.40
2016,08,13,11,22,18.40
2016,08,13,11,23,18.40
2016,08,13,11,24,18.40
2016,08,13,11,25,18.40
2016,08,13,11,26,18.40
2016,08,13,11,27,18.40
2016,08,13,11,28,18.30
2016,08,13,11,29,18.40
2016,08,13,11,30,18.40
2016,08,13,11,31,18.30
2016,08,13,11,32,18.30
2016,08,13,11,33,18.30
2016,08,13,11,34,18.20
2016,08,13,11,35,18.20
2016,08,13,11,36,18.30
2016,08,13,11,37,18.20
2016,08,13,11,38,18.20
2016,08,13,11,39,18.20
2016,08,13,11,40,18.20
2016,08,13,11,41,18.10
2016,08,13,11,42,18.10
2016,08,13,11,43,18.10
2016,08,13,11,44,18.10
2016,08,13,11,45,18.10
2016,08,13,11,46,18.10
2016,08,13,11,47,18.00
2016,08,13,11,48,18.00
2016,08,13,11,49,17.90
2016,08,13,11,50,17.80
2016,08,13,11,51,17.90
2016,08,13,11,52,17.90
2016,08,13,11,53,18.00
2016,08,13,11,54,18.00
2016,08,13,11,55,18.10
2016,08,13,11,56,18.10
2016,08,13,11,57,18.10
2016,08,13,11,58,18.10
2016,08,13,11,59,18.00
2016,08,13,12,00,18.00
2016,08,13,12,01,18.00
2016,08,13,12,02,18.00
2016,08,13,12,03,18.00
2016,08,13,12,04,18.10
2016,08,13,12,05,18.20
2016,08,13,12,06,18.20
2016,08,13,12,07,18.30
2016,08,13,12,08,18.30
2016,08,13,12,09,18.30
2016,08,13,12,10,18.40
2016,08,13,12,11,18.40
2016,08,13,12,12,18.40
2016,08,13,12,13,18.40
2016,08,13,12,14,18.40
2016,08,13,12,15,18.40
2016,08,13,12,16,18.40
2016,08,13,12,17,18.40
2016,08,13,12,18,18.40
2016,08,13,12,19,18.40
2016,08,13,12,20,18.40
2016,08,13,12,21,18.40
2016,08,13,12,22,18.40
2016,08,13,12,23,18.40
2016,08,13,12,24,18.40
2016,08,13,12,25,18.50
2016,08,13,12,26,18.50
2016,08,13,12,27,18.50
2016,08,13,12,28,18.60
2016,08,13,12,29,18.60
2016,08,13,12,30,18.60
2016,08,13,12,31,18.70
2016,08,13,12,32,18.70
2016,08,13,12,33,18.70
2016,08,13,12,34,18.80
2016,08,13,12,35,18.80
2016,08,13,12,36,18.90
2016,08,13,12,37,19.00
2016,08,13,12,38,19.10
2016,08,13,12,39,19.10
2016,08,13,12,40,19.20
2016,08,13,12,41,19.30
2016,08,13,12,42,19.30
2016,08,13,12,43,19.30
2016,08,13,12,44,19.20
2016,08,13,12,45,19.20
2016,08,13,12,46,19.10
2016,08,13,12,47,19.10
2016,08,13,12,48,19.10
2016,08,13,12,49,19.20
2016,08,13,12,50,19.30
2016,08,13,12,51,19.30
2016,08,13,12,52,19.40
2016,08,13,12,53,19.40
2016,08,13,12,54,19.50
2016,08,13,12,55,19.50
2016,08,13,12,56,19.60
2016,08,13,12,57,19.60
2016,08,13,12,58,19.70
2016,08,13,12,59,19.70
2016,08,13,13,00,19.70
2016,08,13,13,01,19.80
2016,08,13,13,02,19.70
2016,08,13,13,03,19.70
2016,08,13,13,04,19.70
2016,08,13,13,05,19.70
2016,08,13,13,06,19.70
2016,08,13,13,07,19.70
2016,08,13,13,08,19.70
2016,08,13,13,09,19.70
2016,08,13,13,10,19.60
2016,08,13,13,11,19.60
2016,08,13,13,12,19.60
2016,08,13,13,13,19.60
2016,08,13,13,14,19.70
2016,08,13,13,15,19.70
2016,08,13,13,16,19.80
2016,08,13,13,17,19.80
2016,08,13,13,18,19.80
2016,08,13,13,19,19.80
2016,08,13,13,20,19.80
2016,08,13,13,21,19.70
2016,08,13,13,22,19.50
2016,08,13,13,23,19.40
2016,08,13,13,24,19.30
2016,08,13,13,25,19.20
2016,08,13,13,26,19.20
2016,08,13,13,27,19.20
2016,08,13,13,28,19.10
2016,08,13,13,29,19.10
2016,08,13,13,30,19.10
2016,08,13,13,31,19.00
2016,08,13,13,32,19.00
2016,08,13,13,33,18.90
2016,08,13,13,34,18.80
2016,08,13,13,35,18.80
2016,08,13,13,36,18.70
2016,08,13,13,37,18.80
2016,08,13,13,38,18.80
2016,08,13,13,39,18.90
2016,08,13,13,40,19.00
2016,08,13,13,41,19.10
2016,08,13,13,42,19.10
2016,08,13,13,43,19.10
2016,08,13,13,44,19.10
2016,08,13,13,45,19.10
2016,08,13,13,46,19.10
2016,08,13,13,47,19.00
2016,08,13,13,48,19.00
2016,08,13,13,49,19.00
2016,08,13,13,50,19.00
2016,08,13,13,51,19.00
2016,08,13,13,52,18.90
2016,08,13,13,53,18.80
2016,08,13,13,54,18.70
2016,08,13,13,55,18.60
2016,08,13,13,56,18.50
2016,08,13,13,57,18.30
2016,08,13,13,58,18.20
2016,08,13,13,59,18.10
2016,08,13,14,00,18.00
2016,08,13,14,01,17.90
2016,08,13,14,02,17.80
2016,08,13,14,03,17.70
2016,08,13,14,04,17.70
2016,08,13,14,05,17.70
2016,08,13,14,06,17.60
2016,08,13,14,07,17.50
2016,08,13,14,08,17.40
2016,08,13,14,09,17.30
2016,08,13,14,10,17.20
2016,08,13,14,11,17.10
2016,08,13,14,12,17.00
2016,08,13,14,13,17.00
2016,08,13,14,14,17.00
2016,08,13,14,15,16.90
2016,08,13,14,16,16.90
2016,08,13,14,17,16.90
2016,08,13,14,18,16.90
2016,08,13,14,19,16.90
2016,08,13,14,20,16.90
2016,08,13,14,21,16.90
2016,08,13,14,22,16.80
2016,08,13,14,23,16.80
2016,08,13,14,24,16.80
2016,08,13,14,25,16.80
2016,08,13,14,26,16.80
2016,08,13,14,27,16.80
2016,08,13,14,28,16.80
2016,08,13,14,29,16.80
2016,08,13,14,30,16.80
2016,08,13,14,31,16.90
2016,08,13,14,32,16.90
2016,08,13,14,33,16.90
2016,08,13,14,34,16.90
2016,08,13,14,35,16.90
2016,08,13,14,36,16.90
2016,08,13,14,37,16.90
2016,08,13,14,38,16.80
2016,08,13,14,39,16.80
2016,08,13,14,40,16.80
2016,08,13,14,41,16.80
2016,08,13,14,42,16.70
2016,08,13,14,43,16.70
2016,08,13,14,44,16.80
2016,08,13,14,45,16.80
2016,08,13,14,46,16.90
2016,08,13,14,47,16.90
2016,08,13,14,48,16.90
2016,08,13,14,49,16.90
2016,08,13,14,50,16.90
2016,08,13,14,51,17.00
2016,08,13,14,52,17.10
2016,08,13,14,53,17.00
2016,08,13,14,54,17.00
2016,08,13,14,55,17.00
2016,08,13,14,56,17.10
2016,08,13,14,57,17.00
2016,08,13,14,58,17.00
2016,08,13,14,59,16.90
2016,08,13,15,00,16.80
2016,08,13,15,01,16.80
2016,08,13,15,02,16.80
2016,08,13,15,03,16.70
2016,08,13,15,04,16.70
2016,08,13,15,05,16.70
2016,08,13,15,06,16.70
2016,08,13,15,07,16.70
2016,08,13,15,08,16.70
2016,08,13,15,09,16.60
2016,08,13,15,10,16.60
2016,08,13,15,11,16.50
2016,08,13,15,12,16.40
2016,08,13,15,13,16.20
2016,08,13,15,14,16.10
2016,08,13,15,15,16.00
2016,08,13,15,16,15.90
2016,08,13,15,17,15.80
2016,08,13,15,18,15.80
2016,08,13,15,19,15.70
2016,08,13,15,20,15.70
2016,08,13,15,21,15.60
2016,08,13,15,22,15.60
2016,08,13,15,23,15.70
2016,08,13,15,24,15.70
2016,08,13,15,25,15.70
2016,08,13,15,26,15.70
2016,08,13,15,27,15.70
2016,08,13,15,28,15.70
2016,08,13,15,29,15.70
2016,08,13,15,30,15.70
2016,08,13,15,31,15.70
2016,08,13,15,32,15.80
2016,08,13,15,33,15.80
2016,08,13,15,34,15.80
2016,08,13,15,35,15.80
2016,08,13,15,36,15.70
2016,08,13,15,37,15.70
2016,08,13,15,38,15.70
2016,08,13,15,39,15.60
2016,08,13,15,40,15.60
2016,08,13,15,41,15.60
2016,08,13,15,42,15.50
2016,08,13,15,43,15.50
2016,08,13,15,44,15.50
2016,08,13,15,45,15.50
2016,08,13,15,46,15.40
2016,08,13,15,47,15.30
2016,08,13,15,48,15.30
2016,08,13,15,49,15.20
2016,08,13,15,50,15.20
2016,08,13,15,51,15.20
2016,08,13,15,52,15.20
2016,08,13,15,53,15.30
2016,08,13,15,54,15.30
2016,08,13,15,55,15.30
2016,08,13,15,56,15.30
2016,08,13,15,57,15.30
2016,08,13,15,58,15.20
2016,08,13,15,59,15.20
2016,08,13,16,00,15.20
2016,08,13,16,01,15.30
2016,08,13,16,02,15.30
2016,08,13,16,03,15.30
2016,08,13,16,04,15.30
2016,08,13,16,05,15.20
2016,08,13,16,06,15.20
2016,08,13,16,07,15.10
2016,08,13,16,08,15.10
2016,08,13,16,09,15.10
2016,08,13,16,10,15.00
2016,08,13,16,11,14.90
2016,08,13,16,12,14.90
2016,08,13,16,13,14.90
2016,08,13,16,14,14.90
2016,08,13,16,15,14.80
2016,08,13,16,16,14.80
2016,08,13,16,17,14.80
2016,08,13,16,18,14.80
2016,08,13,16,19,14.70
2016,08,13,16,20,14.70
2016,08,13,16,21,14.70
2016,08,13,16,22,14.70
2016,08,13,16,23,14.70
2016,08,13,16,24,14.70
2016,08,13,16,25,14.70
2016,08,13,16,26,14.70
2016,08,13,16,27,14.70
2016,08,13,16,28,14.70
2016,08,13,16,29,14.70
2016,08,13,16,30,14.70
2016,08,13,16,31,14.60
2016,08,13,16,32,14.50
2016,08,13,16,33,14.40
2016,08,13,16,34,14.40
2016,08,13,16,35,14.40
2016,08,13,16,36,14.40
2016,08,13,16,37,14.40
2016,08,13,16,38,14.40
2016,08,13,16,39,14.40
2016,08,13,16,40,14.40
2016,08,13,16,41,14.40
2016,08,13,16,42,14.40
2016,08,13,16,43,14.40
2016,08,13,16,44,14.50
2016,08,13,16,45,14.50
2016,08,13,16,46,14.50
2016,08,13,16,47,14.50
2016,08,13,16,48,14.50
2016,08,13,16,49,14.50
2016,08,13,16,50,14.50
2016,08,13,16,51,14.60
2016,08,13,16,52,14.60
2016,08,13,16,53,14.50
2016,08,13,16,54,14.50
2016,08,13,16,55,14.40
2016,08,13,16,56,14.40
2016,08,13,16,57,14.30
2016,08,13,16,58,14.40
2016,08,13,16,59,14.40
2016,08,13,17,00,14.40
2016,08,13,17,01,14.40
2016,08,13,17,02,14.50
2016,08,13,17,03,14.50
2016,08,13,17,04,14.50
2016,08,13,17,05,14.50
2016,08,13,17,06,14.50
2016,08,13,17,07,14.50
2016,08,13,17,08,14.50
2016,08,13,17,09,14.50
2016,08,13,17,10,14.40
2016,08,13,17,11,14.40
2016,08,13,17,12,14.40
2016,08,13,17,13,14.40
2016,08,13,17,14,14.50
2016,08,13,17,15,14.50
2016,08,13,17,16,14.50
2016,08,13,17,17,14.50
2016,08,13,17,18,14.50
2016,08,13,17,19,14.50